Location: Arroyo Grande
(40.2671°N, 4.2512°W)
Time: 17:05:01
(UTC+00:00)

Cosmos 2333 Rocket - Pass Details

Date: 03 February 2023
Orbit: 838 x 864 km, 70.8° (Epoch: 21 March)

Event Time Altitude Azimuth Distance (km) Brightness Sun altitude
Rises 19:52:36 0° 221° (SW) 3,377 5.9 -26.0°
Reaches altitude 10° 19:55:09 10° 228° (SW) 2,448 5.2 -26.5°
Maximum altitude 20:00:29 43° 299° (WNW) 1,163 3.2 -27.5°
Enters shadow 20:04:29 17° 5° (N) 2,000 4.1 -28.3°
